TimePST,TemperatureF,Dew PointF,Humidity,Sea Level PressureIn,VisibilityMPH,Wind Direction,Wind SpeedMPH,Gust SpeedMPH,PrecipitationIn,Events,Conditions,WindDirDegrees,DateUTC
12:05 AM,55.4,48.2,77,29.56,10.0,South,25.3,34.5,N/A,,Overcast,180,2014-01-11 08:05:00
12:11 AM,55.4,48.2,77,29.55,10.0,South,26.5,34.5,N/A,Rain,Light Rain,190,2014-01-11 08:11:00
12:21 AM,55.4,48.2,77,29.54,10.0,South,28.8,35.7,N/A,,Scattered Clouds,190,2014-01-11 08:21:00
12:35 AM,55.4,48.2,77,29.53,10.0,South,23.0,33.4,N/A,Rain,Light Rain,190,2014-01-11 08:35:00
12:44 AM,55.4,48.2,77,29.53,10.0,South,23.0,36.8,N/A,,Mostly Cloudy,180,2014-01-11 08:44:00
12:58 AM,55.9,48.6,76,29.53,10.0,South,23.0,39.1,0.00,,Mostly Cloudy,180,2014-01-11 08:58:00
1:26 AM,55.4,48.2,77,29.51,10.0,South,29.9,38.0,N/A,Rain,Light Rain,180,2014-01-11 09:26:00
1:43 AM,55.4,48.2,77,29.50,10.0,South,27.6,46.0,N/A,,Mostly Cloudy,190,2014-01-11 09:43:00
1:58 AM,55.9,47.7,74,29.52,10.0,South,26.5,34.5,0.00,,Overcast,190,2014-01-11 09:58:00
2:54 AM,57.2,48.2,72,29.47,10.0,SSW,27.6,41.4,N/A,Rain,Light Rain,200,2014-01-11 10:54:00
2:58 AM,57.4,48.0,71,29.47,10.0,South,27.6,41.4,0.00,Rain,Light Rain,190,2014-01-11 10:58:00
3:25 AM,53.6,51.8,94,29.46,8.0,SSW,18.4,29.9,N/A,,Overcast,200,2014-01-11 11:25:00
3:26 AM,53.6,51.8,94,29.46,8.0,SSW,16.1,29.9,N/A,Rain,Light Rain,200,2014-01-11 11:26:00
3:58 AM,52.5,52.3,99,29.45,8.0,SSW,20.7,28.8,0.14,Rain,Light Rain,200,2014-01-11 11:58:00
4:20 AM,51.8,51.8,100,29.47,7.0,SW,23.0,35.7,N/A,Rain,Light Rain,230,2014-01-11 12:20:00
4:30 AM,48.2,48.2,100,29.49,2.0,WSW,23.0,35.7,N/A,Rain,Rain,240,2014-01-11 12:30:00
4:35 AM,48.2,48.2,100,29.50,3.0,WSW,19.6,33.4,N/A,Rain,Rain,250,2014-01-11 12:35:00
4:40 AM,48.2,46.4,93,29.49,6.0,SW,28.8,39.1,N/A,Rain,Rain,230,2014-01-11 12:40:00
4:45 AM,48.2,46.4,93,29.49,8.0,SW,28.8,39.1,N/A,Rain,Rain,230,2014-01-11 12:45:00
4:50 AM,48.2,46.4,93,29.51,8.0,SW,23.0,39.1,N/A,Rain,Light Rain,230,2014-01-11 12:50:00
4:53 AM,46.4,46.4,100,29.50,7.0,SW,29.9,41.4,N/A,,Overcast,230,2014-01-11 12:53:00
4:58 AM,47.1,46.8,99,29.53,7.0,SW,25.3,41.4,0.23,,Overcast,230,2014-01-11 12:58:00
5:29 AM,46.4,46.4,100,29.54,6.0,SW,31.1,35.7,N/A,Rain,Rain,220,2014-01-11 13:29:00
5:49 AM,44.6,44.6,100,29.54,10.0,SSW,19.6,24.2,N/A,,Mostly Cloudy,210,2014-01-11 13:49:00
5:53 AM,44.6,44.6,100,29.54,10.0,SSW,19.6,24.2,N/A,Rain,Light Rain,200,2014-01-11 13:53:00
5:58 AM,45.1,44.8,99,29.56,10.0,SSW,16.1,26.5,0.05,Rain,Light Rain,200,2014-01-11 13:58:00
6:20 AM,44.6,44.6,100,29.54,10.0,South,11.5,23.0,N/A,,Mostly Cloudy,190,2014-01-11 14:20:00
6:35 AM,44.6,44.6,100,29.54,10.0,South,11.5,-,N/A,,Overcast,170,2014-01-11 14:35:00
6:40 AM,44.6,44.6,100,29.53,10.0,South,13.8,-,N/A,,Overcast,170,2014-01-11 14:40:00
6:55 AM,44.6,44.6,100,29.53,10.0,South,16.1,-,N/A,Rain,Light Rain,180,2014-01-11 14:55:00
6:58 AM,44.2,44.1,99,29.55,10.0,South,17.3,-,0.01,Rain,Light Rain,180,2014-01-11 14:58:00
7:09 AM,44.6,44.6,100,29.53,10.0,South,18.4,-,N/A,,Scattered Clouds,180,2014-01-11 15:09:00
7:14 AM,44.6,44.6,100,29.54,10.0,South,18.4,-,N/A,,Mostly Cloudy,180,2014-01-11 15:14:00
7:32 AM,44.6,44.6,100,29.54,10.0,South,16.1,-,N/A,,Mostly Cloudy,190,2014-01-11 15:32:00
7:58 AM,45.1,43.5,94,29.56,10.0,South,18.4,25.3,0.01,,Mostly Cloudy,180,2014-01-11 15:58:00
8:58 AM,44.8,44.4,99,29.56,10.0,South,19.6,27.6,N/A,,Mostly Cloudy,180,2014-01-11 16:58:00
9:58 AM,46.9,43.9,89,29.49,10.0,SSE,18.4,31.1,N/A,,Mostly Cloudy,160,2014-01-11 17:58:00
10:19 AM,46.4,42.8,87,29.48,10.0,South,24.2,27.6,N/A,Rain,Light Rain,170,2014-01-11 18:19:00
10:28 AM,46.4,42.8,87,29.47,10.0,South,19.6,27.6,N/A,,Overcast,180,2014-01-11 18:28:00
10:34 AM,46.4,42.8,87,29.47,10.0,South,20.7,31.1,N/A,Rain,Light Rain,190,2014-01-11 18:34:00
10:43 AM,46.4,42.8,87,29.46,10.0,South,23.0,32.2,N/A,,Mostly Cloudy,180,2014-01-11 18:43:00
10:51 AM,48.2,42.8,82,29.46,10.0,South,25.3,33.4,N/A,Rain,Light Rain,180,2014-01-11 18:51:00
10:58 AM,47.1,42.3,83,29.47,10.0,South,20.7,38.0,0.00,Rain,Light Rain,180,2014-01-11 18:58:00
11:20 AM,48.2,41.0,76,29.43,10.0,South,27.6,35.7,N/A,,Mostly Cloudy,180,2014-01-11 19:20:00
11:29 AM,48.2,41.0,76,29.43,10.0,SSW,26.5,39.1,N/A,Rain,Light Rain,200,2014-01-11 19:29:00
11:54 AM,46.4,42.8,87,29.45,2.0,South,33.4,46.0,N/A,Rain,Rain,190,2014-01-11 19:54:00
11:58 AM,45.7,43.7,93,29.47,2.0,SSW,29.9,46.0,0.12,Rain,Rain,200,2014-01-11 19:58:00
12:03 PM,44.6,42.8,93,29.47,1.8,SSW,25.3,40.3,N/A,Rain,Light Rain,210,2014-01-11 20:03:00
12:08 PM,44.6,44.6,100,29.47,2.0,SSW,24.2,38.0,N/A,,Overcast,200,2014-01-11 20:08:00
12:13 PM,44.6,44.6,100,29.46,3.0,SSW,21.9,32.2,N/A,,Overcast,200,2014-01-11 20:13:00
12:23 PM,44.6,44.6,100,29.45,10.0,South,18.4,29.9,N/A,,Overcast,190,2014-01-11 20:23:00
12:28 PM,44.6,44.6,100,29.45,10.0,SSW,19.6,27.6,N/A,Rain,Light Rain,200,2014-01-11 20:28:00
12:43 PM,44.6,44.6,100,29.43,9.0,South,17.3,27.6,N/A,Rain,Light Rain,190,2014-01-11 20:43:00
12:53 PM,44.6,44.6,100,29.42,10.0,South,20.7,25.3,N/A,Rain,Light Rain,190,2014-01-11 20:53:00
12:58 PM,45.1,45.0,99,29.42,10.0,South,17.3,25.3,0.12,Rain,Light Rain,190,2014-01-11 20:58:00
1:03 PM,44.6,44.6,100,29.41,10.0,South,18.4,25.3,N/A,Rain,Light Rain,180,2014-01-11 21:03:00
1:13 PM,44.6,44.6,100,29.42,9.0,South,23.0,27.6,N/A,Rain,Light Rain,180,2014-01-11 21:13:00
1:28 PM,44.6,44.6,100,29.41,6.0,SSW,26.5,34.5,N/A,Rain,Light Rain,200,2014-01-11 21:28:00
1:30 PM,46.4,44.6,93,29.41,9.0,SSW,21.9,34.5,N/A,,Mostly Cloudy,210,2014-01-11 21:30:00
1:35 PM,46.4,44.6,93,29.40,10.0,SSW,21.9,34.5,N/A,,Mostly Cloudy,210,2014-01-11 21:35:00
1:58 PM,46.4,44.2,92,29.42,10.0,SSW,19.6,31.1,0.04,,Scattered Clouds,200,2014-01-11 21:58:00
1:59 PM,46.4,44.6,93,29.40,10.0,SSW,23.0,28.8,N/A,Rain,Light Rain,200,2014-01-11 21:59:00
2:08 PM,46.4,44.6,93,29.40,10.0,South,20.7,28.8,N/A,,Mostly Cloudy,190,2014-01-11 22:08:00
2:11 PM,46.4,44.6,93,29.40,10.0,SSW,19.6,25.3,N/A,Rain,Light Rain,200,2014-01-11 22:11:00
2:26 PM,44.6,44.6,100,29.42,2.0,SW,25.3,41.4,N/A,Rain,Rain,220,2014-01-11 22:26:00
2:31 PM,44.6,44.6,100,29.42,1.8,SW,29.9,41.4,N/A,Rain,Light Rain,220,2014-01-11 22:31:00
2:36 PM,44.6,42.8,93,29.42,3.0,SSW,21.9,36.8,N/A,,Overcast,210,2014-01-11 22:36:00
2:56 PM,42.8,42.8,100,29.43,9.0,South,20.7,31.1,N/A,,Mostly Cloudy,190,2014-01-11 22:56:00
2:57 PM,42.8,42.8,100,29.43,10.0,South,19.6,31.1,N/A,,Mostly Cloudy,190,2014-01-11 22:57:00
2:58 PM,42.8,42.8,100,29.44,10.0,SSW,18.4,27.6,0.14,,Mostly Cloudy,200,2014-01-11 22:58:00
3:03 PM,42.8,42.8,100,29.43,10.0,SSW,18.4,-,N/A,,Mostly Cloudy,200,2014-01-11 23:03:00
3:06 PM,42.8,42.8,100,29.43,10.0,SSW,17.3,26.5,N/A,Rain,Light Rain,200,2014-01-11 23:06:00
3:31 PM,42.8,42.8,100,29.44,8.0,SSW,20.7,27.6,N/A,Rain,Light Rain,200,2014-01-11 23:31:00
3:58 PM,43.3,43.2,99,29.47,9.0,SSW,18.4,24.2,0.06,Rain,Light Rain,200,2014-01-11 23:58:00
4:08 PM,44.6,42.8,93,29.45,10.0,South,13.8,25.3,N/A,Rain,Light Rain,190,2014-01-12 00:08:00
4:23 PM,42.8,42.8,100,29.45,10.0,South,18.4,-,N/A,Rain,Light Rain,190,2014-01-12 00:23:00
4:48 PM,44.6,42.8,93,29.47,6.0,SW,9.2,-,N/A,,Overcast,230,2014-01-12 00:48:00
4:58 PM,43.9,43.7,99,29.49,9.0,SSW,18.4,27.6,0.04,Rain,Light Rain,210,2014-01-12 00:58:00
5:03 PM,44.6,44.6,100,29.47,10.0,SSW,15.0,27.6,N/A,,Overcast,210,2014-01-12 01:03:00
5:08 PM,44.6,44.6,100,29.47,10.0,SSW,16.1,21.9,N/A,Rain,Light Rain,210,2014-01-12 01:08:00
5:13 PM,44.6,44.6,100,29.47,10.0,SSW,18.4,-,N/A,Rain,Light Rain,200,2014-01-12 01:13:00
5:28 PM,44.6,44.6,100,29.49,10.0,SW,18.4,25.3,N/A,Rain,Light Rain,220,2014-01-12 01:28:00
5:43 PM,44.6,44.6,100,29.50,10.0,SW,19.6,25.3,N/A,Rain,Light Rain,230,2014-01-12 01:43:00
5:57 PM,44.6,42.8,93,29.51,10.0,SW,20.7,25.3,N/A,,Mostly Cloudy,230,2014-01-12 01:57:00
5:58 PM,44.6,42.8,93,29.53,10.0,SW,19.6,27.6,0.02,,Mostly Cloudy,230,2014-01-12 01:58:00
6:04 PM,44.6,42.8,93,29.51,10.0,WSW,24.2,33.4,N/A,Rain,Light Rain,240,2014-01-12 02:04:00
6:29 PM,42.8,42.8,100,29.53,10.0,SW,18.4,-,N/A,,Partly Cloudy,220,2014-01-12 02:29:00
6:58 PM,43.2,41.5,94,29.56,10.0,SW,18.4,28.8,0.00,,Scattered Clouds,220,2014-01-12 02:58:00
7:13 PM,42.8,42.8,100,29.55,10.0,SW,18.4,28.8,N/A,,Mostly Cloudy,230,2014-01-12 03:13:00
7:23 PM,44.6,41.0,87,29.56,10.0,SW,18.4,28.8,N/A,,Scattered Clouds,230,2014-01-12 03:23:00
7:53 PM,44.6,41.0,87,29.58,10.0,SSW,18.4,25.3,N/A,,Mostly Cloudy,210,2014-01-12 03:53:00
7:58 PM,43.7,41.7,93,29.60,10.0,SW,21.9,27.6,N/A,,Mostly Cloudy,220,2014-01-12 03:58:00
8:28 PM,44.6,42.8,93,29.61,10.0,SW,18.4,26.5,N/A,,Overcast,220,2014-01-12 04:28:00
8:53 PM,44.6,41.0,87,29.64,10.0,SW,23.0,32.2,N/A,,Overcast,220,2014-01-12 04:53:00
8:58 PM,44.8,41.0,87,29.67,10.0,SW,23.0,32.2,N/A,,Mostly Cloudy,230,2014-01-12 04:58:00
9:18 PM,44.6,39.2,81,29.67,10.0,WSW,24.2,35.7,N/A,,Scattered Clouds,240,2014-01-12 05:18:00
9:58 PM,44.8,39.7,82,29.74,10.0,WSW,21.9,33.4,N/A,,Partly Cloudy,240,2014-01-12 05:58:00
10:43 PM,44.6,41.0,87,29.77,10.0,SW,19.6,31.1,N/A,,Mostly Cloudy,230,2014-01-12 06:43:00
10:58 PM,45.1,40.3,83,29.81,10.0,SW,18.4,35.7,N/A,,Overcast,230,2014-01-12 06:58:00
11:23 PM,44.6,39.2,81,29.80,10.0,SW,24.2,36.8,N/A,,Scattered Clouds,230,2014-01-12 07:23:00
11:58 PM,44.4,36.9,75,29.84,10.0,SW,25.3,38.0,N/A,,Scattered Clouds,230,2014-01-12 07:58:00